457  
ASUS41 KRLX 170910  
RWRRLX  
WEST VIRGINIA REGIONAL WEATHER ROUNDUP  
NATIONAL WEATHER SERVICE CHARLESTON WV  
500 AM EDT TUE OCT 17 2017  
 
NOTE: "FAIR" INDICATES FEW OR NO CLOUDS BELOW 12,000 FEET WITH NO  
SIGNIFICANT WEATHER AND/OR S TO VISIBILITY
.  
 
WVZ003-171000-  
NORTHERN PANHANDLE OF WEST VIRGINIA  
 
CITY SKY/WX TMP DP RH WIND PRES REMARKS
 
WHEELING CLEAR 38 35 89 S3 30.32R  

 
 
WVZ009-171000-  
NORTHWEST WEST VIRGINIA  
 
CITY SKY/WX TMP DP RH WIND PRES REMARKS
 
PARKERSBURG FOG 37 36 96 CALM 30.36R VSB 1/4  

 
 
WVZ006-171000-  
WESTERN WEST VIRGINIA  
 
CITY SKY/WX TMP DP RH WIND PRES REMARKS
 
HUNTINGTON CLEAR 39 36 89 CALM 30.33R  

 
 
WVZ015-171000-  
WEST CENTRAL WEST VIRGINIA  
 
CITY SKY/WX TMP DP RH WIND PRES REMARKS
 
CHARLESTON FOG 40 38 93 CALM 30.33R VSB 1/4  

 
 
WVZ022-031-171000-  
NORTH CENTRAL WEST VIRGINIA  
 
CITY SKY/WX TMP DP RH WIND PRES REMARKS
 
CLARKSBURG FOG 36 34 92 CALM 30.32R VSB 1/2  
MORGANTOWN CLEAR 37 34 89 CALM 30.33R  

 
 
WVZ025-035-042-045-171000-  
SOUTHERN WEST VIRGINIA  
 
CITY SKY/WX TMP DP RH WIND PRES REMARKS
 
BECKLEY CLEAR 36 33 89 CALM 30.30S  
LOGAN N/A 41 39 93 CALM 30.32R  
BLUEFIELD CLEAR 36 33 89 W3 30.30S  
LEWISBURG CLEAR 33 32 96 CALM 30.31R  

 
 
WVZ047-171000-  
NORTHERN MOUNTAINS OF WEST VIRGINIA  
 
CITY SKY/WX TMP DP RH WIND PRES REMARKS
 
ELKINS FOG 37 35 92 CALM 30.33R VSB 3/4  

 
 
WVZ052-171000-  
EASTERN PANHANDLE OF WEST VIRGINIA  
 
CITY SKY/WX TMP DP RH WIND PRES REMARKS
 
MARTINSBURG CLEAR 38 34 85 CALM 30.31R  
PETERSBURG CLEAR 34 33 98 CALM 30.34R  

 
 
 
CLICK HERE TO GO TO PREVIOUS BULLETINS.

The Nexlab WV Page
The Nexlab OH Page
The Nexlab KY Page
The Nexlab VA Page Main Text Page